DCM224 KSFB-KBHM

Flight info

Callsign DCM224
Flight time 2h 15m
Altitude 22000
Route VIZTA JFRYS PATOY Q116 DEEDA WANDS
Aircraft PC12/L-SDFGRWY/S

Departure

Time 2026-05-06 13:53
Airport Orlando Sanford International Airport (KSFB)

Arrival

Time 2026-05-06 16:09
Airport Birmingham-Shuttlesworth International Airport (KBHM)
Time Latitude Longitude Altitude Speed Heading
2026-05-06 13:39 28.77878 -81.24946 53 ft 0 kts 217°
2026-05-06 13:46 28.77877 -81.24946 53 ft 0 kts 219°
2026-05-06 13:46 28.77873 -81.24954 51 ft 5 kts 256°
2026-05-06 13:47 28.77914 -81.24972 50 ft 10 kts 359°
2026-05-06 13:47 28.77989 -81.25006 51 ft 14 kts 324°
2026-05-06 13:47 28.78059 -81.24992 49 ft 13 kts 67°
2026-05-06 13:47 28.78056 -81.24896 49 ft 12 kts 82°
2026-05-06 13:48 28.78063 -81.24803 49 ft 12 kts 88°
2026-05-06 13:48 28.78064 -81.24699 50 ft 14 kts 90°
2026-05-06 13:48 28.78066 -81.24578 51 ft 16 kts 89°
2026-05-06 13:48 28.78067 -81.24445 53 ft 17 kts 91°
2026-05-06 13:49 28.78066 -81.24310 56 ft 17 kts 89°
2026-05-06 13:49 28.78066 -81.24171 59 ft 18 kts 90°
2026-05-06 13:49 28.78066 -81.24014 60 ft 21 kts 90°
2026-05-06 13:49 28.78068 -81.23834 61 ft 24 kts 90°
2026-05-06 13:50 28.78070 -81.23661 60 ft 14 kts 68°
2026-05-06 13:50 28.78171 -81.23635 59 ft 18 kts
2026-05-06 13:50 28.78303 -81.23623 59 ft 18 kts 39°
2026-05-06 13:50 28.78317 -81.23573 59 ft 0 kts 91°
2026-05-06 13:51 28.78317 -81.23572 59 ft 1 kts 92°
2026-05-06 13:52 28.78314 -81.23504 56 ft 12 kts 112°
2026-05-06 13:52 28.78189 -81.23477 53 ft 35 kts 179°
2026-05-06 13:52 28.77781 -81.23475 56 ft 79 kts 178°
2026-05-06 13:52 28.77161 -81.23490 157 ft 95 kts 180°
2026-05-06 13:53 28.76511 -81.23497 480 ft 88 kts 173°
2026-05-06 13:53 28.75851 -81.23394 606 ft 104 kts 172°
2026-05-06 13:53 28.75126 -81.23269 856 ft 111 kts 171°
2026-05-06 13:53 28.74312 -81.23125 1088 ft 126 kts 172°
2026-05-06 13:54 28.73401 -81.22952 1341 ft 138 kts 171°
2026-05-06 13:54 28.72401 -81.22771 1591 ft 150 kts 179°
2026-05-06 13:54 28.71470 -81.23238 2002 ft 150 kts 229°
2026-05-06 13:54 28.71119 -81.24333 2420 ft 154 kts 266°
2026-05-06 13:55 28.71227 -81.25563 2766 ft 157 kts 274°
2026-05-06 13:55 28.71337 -81.26784 3170 ft 157 kts 273°
2026-05-06 13:55 28.71418 -81.28025 3631 ft 157 kts 273°
2026-05-06 13:55 28.71492 -81.29266 4072 ft 157 kts 273°
2026-05-06 13:56 28.71563 -81.30504 4510 ft 157 kts 275°
2026-05-06 13:56 28.71633 -81.31741 4945 ft 157 kts 276°
2026-05-06 13:56 28.71703 -81.32990 5365 ft 159 kts 277°
2026-05-06 13:56 28.71774 -81.34254 5840 ft 161 kts 276°
2026-05-06 13:57 28.71846 -81.35541 6310 ft 164 kts 276°
2026-05-06 13:57 28.71895 -81.36416 6649 ft 165 kts 277°
2026-05-06 13:57 28.71968 -81.37720 7159 ft 165 kts 277°
2026-05-06 13:57 28.72066 -81.39454 7768 ft 166 kts 277°
2026-05-06 13:58 28.72139 -81.40768 8226 ft 166 kts 277°
2026-05-06 13:58 28.72189 -81.41652 8530 ft 166 kts 278°
2026-05-06 13:58 28.72263 -81.42974 8980 ft 167 kts 278°
2026-05-06 13:58 28.72337 -81.44297 9433 ft 168 kts 278°
2026-05-06 13:59 28.72410 -81.45628 9869 ft 169 kts 278°
2026-05-06 13:59 28.72484 -81.46958 10282 ft 168 kts 278°
2026-05-06 13:59 28.72558 -81.48287 10673 ft 168 kts 279°
2026-05-06 13:59 28.72632 -81.49617 11070 ft 168 kts 279°
2026-05-06 14:00 28.72705 -81.50951 11474 ft 168 kts 279°
2026-05-06 14:00 28.72778 -81.52280 11882 ft 168 kts 280°
2026-05-06 14:00 28.72852 -81.53614 12269 ft 169 kts 280°
2026-05-06 14:00 28.72925 -81.54951 12667 ft 169 kts 281°
2026-05-06 14:01 28.72998 -81.56290 13080 ft 169 kts 281°
2026-05-06 14:01 28.73071 -81.57628 13498 ft 169 kts 281°
2026-05-06 14:01 28.73145 -81.58969 13905 ft 170 kts 282°
2026-05-06 14:01 28.73218 -81.60312 14263 ft 170 kts 281°
2026-05-06 14:02 28.73291 -81.61657 14629 ft 170 kts 282°
2026-05-06 14:02 28.73364 -81.63001 14979 ft 170 kts 281°
2026-05-06 14:02 28.73438 -81.64346 15332 ft 170 kts 281°
2026-05-06 14:02 28.73510 -81.65691 15681 ft 170 kts 281°
2026-05-06 14:03 28.73581 -81.67018 16020 ft 170 kts 281°
2026-05-06 14:03 28.73655 -81.68382 16373 ft 170 kts 281°
2026-05-06 14:03 28.73727 -81.69711 16703 ft 171 kts 281°
2026-05-06 14:03 28.73799 -81.71061 17044 ft 171 kts 281°
2026-05-06 14:04 28.73871 -81.72411 17384 ft 171 kts 281°
2026-05-06 14:04 28.73944 -81.73761 17715 ft 171 kts 281°
2026-05-06 14:04 28.74016 -81.75113 18038 ft 171 kts 280°
2026-05-06 14:04 28.74088 -81.76466 18365 ft 171 kts 280°
2026-05-06 14:05 28.74160 -81.77822 18641 ft 172 kts 280°
2026-05-06 14:05 28.74232 -81.79183 18915 ft 172 kts 280°
2026-05-06 14:05 28.74305 -81.80544 19198 ft 172 kts 280°
2026-05-06 14:05 28.74377 -81.81910 19476 ft 173 kts 280°
2026-05-06 14:06 28.74449 -81.83278 19753 ft 173 kts 280°
2026-05-06 14:06 28.74521 -81.84649 20028 ft 173 kts 280°
2026-05-06 14:06 28.74594 -81.86025 20296 ft 174 kts 280°
2026-05-06 14:06 28.74666 -81.87404 20569 ft 175 kts 280°
2026-05-06 14:07 28.74738 -81.88786 20867 ft 175 kts 280°
2026-05-06 14:07 28.74810 -81.90169 21152 ft 175 kts 280°
2026-05-06 14:07 28.74883 -81.91556 21439 ft 176 kts 280°
2026-05-06 14:07 28.74955 -81.92946 21726 ft 176 kts 280°
2026-05-06 14:08 28.75028 -81.94342 22000 ft 177 kts 280°
2026-05-06 14:08 28.75103 -81.95757 22117 ft 184 kts 280°
2026-05-06 14:08 28.75184 -81.97256 22121 ft 194 kts 280°
2026-05-06 14:08 28.75265 -81.98819 22123 ft 201 kts 279°
2026-05-06 14:09 28.75348 -82.00445 22126 ft 209 kts 279°
2026-05-06 14:09 28.75428 -82.02126 22127 ft 216 kts 276°
2026-05-06 14:09 28.75161 -82.03850 22126 ft 230 kts 257°
2026-05-06 14:09 28.74301 -82.05444 22125 ft 243 kts 239°
2026-05-06 14:10 28.73202 -82.06937 22124 ft 248 kts 238°
2026-05-06 14:10 28.72080 -82.08454 22108 ft 252 kts 239°
2026-05-06 14:10 28.70955 -82.09998 22111 ft 254 kts 239°
2026-05-06 14:10 28.69842 -82.11532 22111 ft 255 kts 239°
2026-05-06 14:11 28.68706 -82.13090 22109 ft 256 kts 239°
2026-05-06 14:11 28.67567 -82.14650 22111 ft 256 kts 239°
2026-05-06 14:11 28.66425 -82.16216 22110 ft 257 kts 239°
2026-05-06 14:11 28.65280 -82.17785 22110 ft 258 kts 239°
2026-05-06 14:12 28.64132 -82.19358 22113 ft 259 kts 239°
2026-05-06 14:12 28.62980 -82.20936 22112 ft 259 kts 239°
2026-05-06 14:12 28.61827 -82.22513 22112 ft 259 kts 239°
2026-05-06 14:12 28.60675 -82.24089 22111 ft 259 kts 239°
2026-05-06 14:13 28.59522 -82.25666 22107 ft 259 kts 239°
2026-05-06 14:13 28.58369 -82.27244 22110 ft 259 kts 239°
2026-05-06 14:13 28.57216 -82.28819 22109 ft 259 kts 239°
2026-05-06 14:13 28.56061 -82.30397 22109 ft 259 kts 239°
2026-05-06 14:14 28.54907 -82.31973 22108 ft 259 kts 239°
2026-05-06 14:14 28.53753 -82.33548 22109 ft 259 kts 238°
2026-05-06 14:14 28.52599 -82.35124 22110 ft 259 kts 238°
2026-05-06 14:14 28.51445 -82.36698 22110 ft 259 kts 238°
2026-05-06 14:15 28.50291 -82.38272 22112 ft 259 kts 238°
2026-05-06 14:15 28.49136 -82.39845 22116 ft 259 kts 238°
2026-05-06 14:15 28.47986 -82.41416 22113 ft 258 kts 239°
2026-05-06 14:15 28.47070 -82.43110 22111 ft 247 kts 255°
2026-05-06 14:16 28.46633 -82.44963 22109 ft 240 kts 269°
2026-05-06 14:16 28.46653 -82.46825 22109 ft 234 kts 283°
2026-05-06 14:16 28.47097 -82.48580 22111 ft 230 kts 296°
2026-05-06 14:16 28.47920 -82.50126 22094 ft 229 kts 309°
2026-05-06 14:17 28.49062 -82.51372 22095 ft 230 kts 321°
2026-05-06 14:17 28.50429 -82.52324 22095 ft 230 kts 327°
2026-05-06 14:17 28.51811 -82.53242 22096 ft 230 kts 327°
2026-05-06 14:17 28.53192 -82.54167 22095 ft 230 kts 327°
2026-05-06 14:18 28.54572 -82.55092 22097 ft 230 kts 327°
2026-05-06 14:18 28.55951 -82.56015 22097 ft 230 kts 327°
2026-05-06 14:18 28.57331 -82.56938 22097 ft 230 kts 327°
2026-05-06 14:18 28.58710 -82.57861 22098 ft 230 kts 327°
2026-05-06 14:19 28.60088 -82.58784 22098 ft 230 kts 327°
2026-05-06 14:19 28.61463 -82.59705 22097 ft 229 kts 327°
2026-05-06 14:19 28.62837 -82.60625 22097 ft 229 kts 327°
2026-05-06 14:19 28.64210 -82.61546 22097 ft 229 kts 327°
2026-05-06 14:20 28.65583 -82.62466 22096 ft 229 kts 327°
2026-05-06 14:20 28.66935 -82.63373 22096 ft 229 kts 327°
2026-05-06 14:20 28.68306 -82.64292 22096 ft 229 kts 327°
2026-05-06 14:20 28.69675 -82.65211 22096 ft 228 kts 327°
2026-05-06 14:21 28.71041 -82.66129 22100 ft 228 kts 327°
2026-05-06 14:21 28.72408 -82.67047 22101 ft 228 kts 327°
2026-05-06 14:21 28.73775 -82.67965 22100 ft 228 kts 326°
2026-05-06 14:21 28.75141 -82.68884 22100 ft 229 kts 326°
2026-05-06 14:22 28.76516 -82.69808 22112 ft 229 kts 326°
2026-05-06 14:22 28.77892 -82.70732 22112 ft 230 kts 326°
2026-05-06 14:22 28.79270 -82.71658 22112 ft 230 kts 326°
2026-05-06 14:22 28.80649 -82.72586 22112 ft 231 kts 326°
2026-05-06 14:23 28.82031 -82.73516 22112 ft 231 kts 326°
2026-05-06 14:23 28.83412 -82.74446 22123 ft 230 kts 326°
2026-05-06 14:23 28.84791 -82.75375 22123 ft 230 kts 326°
2026-05-06 14:23 28.86171 -82.76305 22122 ft 230 kts 326°
2026-05-06 14:24 28.87549 -82.77234 22119 ft 230 kts 326°
2026-05-06 14:24 28.88925 -82.78161 22121 ft 230 kts 326°
2026-05-06 14:24 28.90303 -82.79090 22120 ft 230 kts 326°
2026-05-06 14:24 28.91679 -82.80018 22120 ft 230 kts 326°
2026-05-06 14:25 28.93054 -82.80946 22118 ft 230 kts 326°
2026-05-06 14:25 28.94429 -82.81874 22119 ft 229 kts 326°
2026-05-06 14:25 28.95802 -82.82801 22118 ft 229 kts 326°
2026-05-06 14:25 28.97175 -82.83728 22118 ft 229 kts 326°
2026-05-06 14:26 28.98546 -82.84654 22116 ft 229 kts 326°
2026-05-06 14:26 28.99917 -82.85580 22115 ft 229 kts 326°
2026-05-06 14:26 29.01291 -82.86509 22115 ft 230 kts 326°
2026-05-06 14:26 29.02667 -82.87440 22115 ft 230 kts 326°
2026-05-06 14:27 29.04049 -82.88375 22113 ft 231 kts 326°
2026-05-06 14:27 29.05430 -82.89309 22112 ft 231 kts 326°
2026-05-06 14:27 29.06791 -82.90271 22115 ft 228 kts 321°
2026-05-06 14:27 29.08077 -82.91331 22116 ft 228 kts 321°
2026-05-06 14:28 29.09372 -82.92386 22116 ft 229 kts 321°
2026-05-06 14:28 29.10668 -82.93439 22116 ft 229 kts 321°
2026-05-06 14:28 29.11962 -82.94494 22116 ft 229 kts 321°
2026-05-06 14:28 29.13257 -82.95552 22116 ft 229 kts 321°
2026-05-06 14:29 29.14551 -82.96609 22116 ft 228 kts 321°
2026-05-06 14:29 29.15843 -82.97664 22116 ft 228 kts 321°
2026-05-06 14:29 29.17133 -82.98718 22116 ft 228 kts 321°
2026-05-06 14:29 29.18422 -82.99771 22116 ft 228 kts 321°
2026-05-06 14:30 29.19711 -83.00824 22112 ft 227 kts 321°
2026-05-06 14:30 29.20996 -83.01876 22112 ft 227 kts 321°
2026-05-06 14:30 29.22282 -83.02928 22113 ft 227 kts 321°
2026-05-06 14:30 29.23567 -83.03979 22112 ft 227 kts 321°
2026-05-06 14:31 29.24851 -83.05030 22113 ft 227 kts 321°
2026-05-06 14:31 29.26134 -83.06080 22113 ft 227 kts 321°
2026-05-06 14:31 29.27398 -83.07116 22113 ft 226 kts 321°
2026-05-06 14:31 29.28697 -83.08180 22113 ft 227 kts 321°
2026-05-06 14:32 29.29966 -83.09221 22110 ft 228 kts 321°
2026-05-06 14:32 29.31254 -83.10278 22111 ft 228 kts 321°
2026-05-06 14:32 29.32547 -83.11338 22111 ft 229 kts 321°
2026-05-06 14:32 29.33841 -83.12399 22111 ft 229 kts 321°
2026-05-06 14:33 29.35135 -83.13461 22116 ft 229 kts 321°
2026-05-06 14:33 29.36429 -83.14523 22131 ft 229 kts 321°
2026-05-06 14:33 29.37726 -83.15586 22115 ft 229 kts 321°
2026-05-06 14:33 29.39018 -83.16648 22107 ft 229 kts 320°
2026-05-06 14:34 29.40311 -83.17711 22106 ft 228 kts 320°
2026-05-06 14:34 29.41601 -83.18771 22106 ft 228 kts 320°
2026-05-06 14:34 29.42889 -83.19829 22110 ft 228 kts 320°
2026-05-06 14:34 29.44175 -83.20887 22109 ft 227 kts 320°
2026-05-06 14:35 29.45458 -83.21943 22108 ft 227 kts 320°
2026-05-06 14:35 29.46739 -83.22998 22109 ft 227 kts 320°
2026-05-06 14:35 29.48021 -83.24053 22108 ft 226 kts 320°
2026-05-06 14:35 29.49301 -83.25107 22108 ft 226 kts 320°
2026-05-06 14:36 29.50578 -83.26159 22109 ft 226 kts 320°
2026-05-06 14:36 29.51853 -83.27209 22109 ft 226 kts 320°
2026-05-06 14:36 29.53127 -83.28260 22100 ft 226 kts 320°
2026-05-06 14:36 29.54401 -83.29311 22100 ft 225 kts 320°
2026-05-06 14:37 29.55672 -83.30359 22098 ft 225 kts 320°
2026-05-06 14:37 29.56944 -83.31407 22099 ft 225 kts 320°
2026-05-06 14:37 29.58214 -83.32456 22099 ft 225 kts 320°
2026-05-06 14:37 29.59484 -83.33505 22099 ft 225 kts 320°
2026-05-06 14:38 29.60759 -83.34559 22096 ft 226 kts 320°
2026-05-06 14:38 29.62041 -83.35618 22101 ft 227 kts 320°
2026-05-06 14:38 29.63325 -83.36678 22101 ft 228 kts 320°
2026-05-06 14:38 29.64594 -83.37727 22101 ft 228 kts 320°
2026-05-06 14:39 29.65896 -83.38804 22103 ft 228 kts 320°
2026-05-06 14:39 29.67166 -83.39854 22105 ft 228 kts 320°
2026-05-06 14:39 29.68453 -83.40919 22105 ft 228 kts 320°
2026-05-06 14:39 29.69737 -83.41981 22105 ft 227 kts 320°
2026-05-06 14:40 29.71018 -83.43042 22101 ft 227 kts 320°
2026-05-06 14:40 29.72296 -83.44101 22102 ft 226 kts 320°
2026-05-06 14:40 29.73573 -83.45161 22102 ft 226 kts 320°
2026-05-06 14:40 29.74847 -83.46217 22102 ft 225 kts 320°
2026-05-06 14:41 29.76119 -83.47272 22102 ft 225 kts 320°
2026-05-06 14:41 29.77389 -83.48324 22102 ft 225 kts 320°
2026-05-06 14:41 29.78658 -83.49376 22102 ft 224 kts 320°
2026-05-06 14:41 29.79924 -83.50427 22102 ft 224 kts 320°
2026-05-06 14:42 29.81189 -83.51477 22102 ft 224 kts 320°
2026-05-06 14:42 29.82452 -83.52525 22102 ft 224 kts 320°
2026-05-06 14:42 29.83714 -83.53574 22108 ft 224 kts 319°
2026-05-06 14:42 29.84976 -83.54622 22108 ft 224 kts 319°
2026-05-06 14:43 29.86239 -83.55672 22108 ft 224 kts 319°
2026-05-06 14:43 29.87501 -83.56721 22108 ft 224 kts 319°
2026-05-06 14:43 29.88768 -83.57775 22108 ft 225 kts 319°
2026-05-06 14:43 29.90041 -83.58833 22109 ft 226 kts 319°
2026-05-06 14:44 29.91317 -83.59893 22108 ft 226 kts 319°
2026-05-06 14:44 29.92593 -83.60955 22108 ft 226 kts 319°
2026-05-06 14:44 29.93869 -83.62017 22108 ft 226 kts 319°
2026-05-06 14:45 29.96422 -83.64141 22112 ft 227 kts 319°
2026-05-06 14:45 29.97699 -83.65205 22107 ft 226 kts 319°
2026-05-06 14:45 29.98971 -83.66264 22107 ft 225 kts 319°
2026-05-06 14:45 30.00240 -83.67322 22106 ft 225 kts 319°
2026-05-06 14:46 30.01488 -83.68363 22109 ft 224 kts 319°
2026-05-06 14:46 30.02752 -83.69418 22108 ft 224 kts 319°
2026-05-06 14:46 30.04013 -83.70471 22108 ft 224 kts 319°
2026-05-06 14:46 30.05274 -83.71522 22108 ft 223 kts 319°
2026-05-06 14:47 30.06124 -83.72232 22108 ft 223 kts 319°
2026-05-06 14:47 30.07381 -83.73281 22108 ft 223 kts 319°
2026-05-06 14:47 30.08636 -83.74329 22108 ft 223 kts 319°
2026-05-06 14:47 30.09889 -83.75377 22107 ft 222 kts 319°
2026-05-06 14:48 30.11142 -83.76424 22107 ft 222 kts 319°
2026-05-06 14:48 30.12396 -83.77473 22107 ft 223 kts 319°
2026-05-06 14:48 30.13655 -83.78526 22108 ft 224 kts 319°
2026-05-06 14:48 30.14917 -83.79582 22104 ft 224 kts 319°
2026-05-06 14:49 30.16182 -83.80641 22103 ft 225 kts 319°
2026-05-06 14:49 30.17450 -83.81702 22102 ft 225 kts 319°
2026-05-06 14:49 30.18717 -83.82764 22102 ft 225 kts 319°
2026-05-06 14:49 30.19985 -83.83827 22102 ft 225 kts 319°
2026-05-06 14:50 30.21236 -83.84877 22101 ft 225 kts 319°
2026-05-06 14:50 30.22503 -83.85940 22101 ft 225 kts 319°
2026-05-06 14:50 30.23770 -83.87004 22098 ft 225 kts 319°
2026-05-06 14:50 30.25036 -83.88067 22098 ft 225 kts 319°
2026-05-06 14:51 30.26300 -83.89128 22092 ft 225 kts 319°
2026-05-06 14:51 30.27565 -83.90190 22093 ft 224 kts 319°
2026-05-06 14:51 30.28826 -83.91248 22099 ft 224 kts 318°
2026-05-06 14:51 30.30083 -83.92305 22096 ft 223 kts 318°
2026-05-06 14:52 30.31338 -83.93361 22096 ft 223 kts 318°
2026-05-06 14:52 30.32591 -83.94415 22096 ft 222 kts 318°
2026-05-06 14:52 30.33841 -83.95467 22096 ft 222 kts 318°
2026-05-06 14:52 30.35090 -83.96519 22096 ft 222 kts 318°
2026-05-06 14:53 30.36334 -83.97567 22094 ft 221 kts 318°
2026-05-06 14:53 30.37578 -83.98615 22091 ft 221 kts 318°
2026-05-06 14:53 30.38820 -83.99661 22091 ft 221 kts 318°
2026-05-06 14:53 30.40061 -84.00708 22091 ft 221 kts 318°
2026-05-06 14:54 30.41304 -84.01755 22091 ft 221 kts 318°
2026-05-06 14:54 30.42546 -84.02802 22091 ft 221 kts 318°
2026-05-06 14:54 30.43787 -84.03849 22090 ft 221 kts 318°
2026-05-06 14:54 30.45027 -84.04895 22090 ft 220 kts 318°
2026-05-06 14:55 30.46264 -84.05940 22090 ft 220 kts 318°
2026-05-06 14:55 30.47502 -84.06986 22089 ft 220 kts 318°
2026-05-06 14:55 30.48740 -84.08032 22090 ft 220 kts 318°
2026-05-06 14:55 30.49976 -84.09077 22089 ft 220 kts 318°
2026-05-06 14:56 30.51212 -84.10121 22089 ft 220 kts 318°
2026-05-06 14:56 30.52448 -84.11166 22088 ft 220 kts 318°
2026-05-06 14:56 30.53680 -84.12208 22088 ft 220 kts 318°
2026-05-06 14:56 30.54918 -84.13257 22089 ft 221 kts 318°
2026-05-06 14:57 30.56163 -84.14311 22089 ft 222 kts 318°
2026-05-06 14:57 30.57413 -84.15369 22090 ft 223 kts 318°
2026-05-06 14:57 30.58665 -84.16429 22090 ft 223 kts 318°
2026-05-06 14:57 30.59919 -84.17491 22090 ft 223 kts 318°
2026-05-06 14:58 30.61175 -84.18556 22090 ft 224 kts 318°
2026-05-06 14:58 30.62431 -84.19621 22089 ft 223 kts 318°
2026-05-06 14:58 30.63687 -84.20686 22089 ft 224 kts 318°
2026-05-06 14:58 30.64944 -84.21752 22088 ft 224 kts 318°
2026-05-06 14:59 30.66199 -84.22818 22087 ft 224 kts 318°
2026-05-06 14:59 30.67454 -84.23882 22088 ft 223 kts 318°
2026-05-06 14:59 30.68689 -84.24931 22087 ft 223 kts 318°
2026-05-06 14:59 30.69940 -84.25995 22087 ft 223 kts 318°
2026-05-06 15:00 30.71191 -84.27057 22086 ft 223 kts 318°
2026-05-06 15:00 30.72441 -84.28119 22086 ft 222 kts 318°
2026-05-06 15:00 30.73688 -84.29180 22086 ft 222 kts 318°
2026-05-06 15:00 30.74934 -84.30240 22086 ft 222 kts 318°
2026-05-06 15:01 30.76181 -84.31301 22086 ft 222 kts 318°
2026-05-06 15:01 30.77425 -84.32360 22086 ft 222 kts 318°
2026-05-06 15:01 30.78668 -84.33418 22086 ft 221 kts 318°
2026-05-06 15:01 30.79909 -84.34475 22087 ft 221 kts 318°
2026-05-06 15:02 30.81150 -84.35533 22086 ft 221 kts 317°
2026-05-06 15:02 30.82392 -84.36591 22086 ft 222 kts 317°
2026-05-06 15:02 30.83638 -84.37654 22091 ft 223 kts 317°
2026-05-06 15:02 30.84890 -84.38722 22081 ft 223 kts 317°
2026-05-06 15:03 30.86145 -84.39792 22079 ft 223 kts 317°
2026-05-06 15:03 30.87397 -84.40860 22079 ft 223 kts 317°
2026-05-06 15:03 30.88648 -84.41929 22078 ft 223 kts 317°
2026-05-06 15:03 30.89898 -84.42996 22078 ft 223 kts 317°
2026-05-06 15:04 30.91149 -84.44064 22079 ft 223 kts 317°
2026-05-06 15:04 30.92398 -84.45132 22079 ft 223 kts 317°
2026-05-06 15:04 30.93644 -84.46198 22078 ft 222 kts 317°
2026-05-06 15:04 30.94892 -84.47263 22106 ft 222 kts 317°
2026-05-06 15:05 30.96136 -84.48328 22109 ft 222 kts 317°
2026-05-06 15:05 30.97379 -84.49392 22111 ft 222 kts 317°
2026-05-06 15:05 30.98620 -84.50454 22111 ft 221 kts 317°
2026-05-06 15:05 30.99861 -84.51517 22112 ft 221 kts 317°
2026-05-06 15:06 31.01101 -84.52580 22113 ft 221 kts 317°
2026-05-06 15:06 31.02340 -84.53641 22113 ft 221 kts 317°
2026-05-06 15:06 31.03577 -84.54700 22114 ft 220 kts 317°
2026-05-06 15:06 31.04811 -84.55758 22114 ft 220 kts 317°
2026-05-06 15:07 31.06045 -84.56816 22112 ft 220 kts 317°
2026-05-06 15:07 31.07277 -84.57873 22112 ft 220 kts 317°
2026-05-06 15:07 31.08506 -84.58929 22110 ft 220 kts 317°
2026-05-06 15:07 31.09739 -84.59988 22108 ft 220 kts 317°
2026-05-06 15:08 31.10970 -84.61044 22105 ft 220 kts 317°
2026-05-06 15:08 31.12182 -84.62086 22103 ft 219 kts 317°
2026-05-06 15:08 31.13426 -84.63155 22123 ft 219 kts 317°
2026-05-06 15:08 31.14656 -84.64212 22103 ft 219 kts 317°
2026-05-06 15:09 31.15867 -84.65253 22101 ft 219 kts 317°
2026-05-06 15:09 31.17109 -84.66321 22099 ft 219 kts 316°
2026-05-06 15:09 31.18331 -84.67373 22099 ft 218 kts 316°
2026-05-06 15:09 31.19551 -84.68423 22095 ft 218 kts 316°
2026-05-06 15:10 31.20753 -84.69458 22093 ft 217 kts 316°
2026-05-06 15:10 31.21972 -84.70508 22097 ft 218 kts 316°
2026-05-06 15:10 31.23211 -84.71576 22101 ft 219 kts 316°
2026-05-06 15:10 31.24438 -84.72633 22103 ft 219 kts 316°
2026-05-06 15:11 31.25649 -84.73678 22107 ft 220 kts 316°
2026-05-06 15:11 31.26879 -84.74738 22110 ft 220 kts 316°
2026-05-06 15:11 31.28112 -84.75803 22113 ft 220 kts 316°
2026-05-06 15:11 31.29345 -84.76867 22116 ft 220 kts 316°
2026-05-06 15:12 31.30578 -84.77931 22118 ft 220 kts 316°
2026-05-06 15:12 31.31810 -84.78995 22121 ft 220 kts 316°
2026-05-06 15:12 31.33047 -84.80063 22125 ft 220 kts 316°
2026-05-06 15:12 31.34279 -84.81128 22127 ft 220 kts 316°
2026-05-06 15:13 31.35512 -84.82194 22128 ft 220 kts 316°
2026-05-06 15:13 31.36743 -84.83259 22128 ft 220 kts 316°
2026-05-06 15:13 31.37974 -84.84324 22128 ft 220 kts 316°
2026-05-06 15:13 31.39205 -84.85388 22128 ft 220 kts 316°
2026-05-06 15:14 31.40434 -84.86451 22128 ft 220 kts 316°
2026-05-06 15:14 31.41663 -84.87516 22128 ft 220 kts 316°
2026-05-06 15:14 31.42892 -84.88581 22125 ft 220 kts 316°
2026-05-06 15:14 31.44119 -84.89644 22125 ft 219 kts 316°
2026-05-06 15:15 31.45342 -84.90703 22124 ft 219 kts 316°
2026-05-06 15:15 31.46563 -84.91762 22125 ft 218 kts 316°
2026-05-06 15:15 31.47781 -84.92819 22126 ft 218 kts 316°
2026-05-06 15:15 31.48998 -84.93875 22123 ft 218 kts 316°
2026-05-06 15:16 31.50215 -84.94931 22119 ft 218 kts 316°
2026-05-06 15:16 31.51429 -84.95986 22117 ft 218 kts 316°
2026-05-06 15:16 31.52647 -84.97044 22115 ft 218 kts 316°
2026-05-06 15:16 31.53870 -84.98106 22111 ft 219 kts 316°
2026-05-06 15:17 31.55095 -84.99171 22107 ft 220 kts 316°
2026-05-06 15:17 31.56322 -85.00238 22105 ft 220 kts 316°
2026-05-06 15:17 31.57552 -85.01305 22100 ft 220 kts 316°
2026-05-06 15:17 31.58797 -85.02353 22098 ft 221 kts 317°
2026-05-06 15:18 31.60048 -85.03397 22095 ft 221 kts 317°
2026-05-06 15:18 31.61294 -85.04446 22092 ft 221 kts 316°
2026-05-06 15:18 31.62540 -85.05499 22087 ft 221 kts 316°
2026-05-06 15:18 31.63787 -85.06553 22083 ft 221 kts 316°
2026-05-06 15:19 31.65033 -85.07605 22074 ft 221 kts 316°
2026-05-06 15:19 31.66280 -85.08658 22077 ft 221 kts 316°
2026-05-06 15:19 31.67526 -85.09711 22081 ft 220 kts 316°
2026-05-06 15:19 31.68771 -85.10763 22084 ft 220 kts 316°
2026-05-06 15:20 31.70014 -85.11814 22089 ft 220 kts 316°
2026-05-06 15:20 31.71241 -85.12852 22091 ft 221 kts 316°
2026-05-06 15:20 31.72486 -85.13905 22092 ft 220 kts 316°
2026-05-06 15:20 31.73728 -85.14955 22096 ft 220 kts 316°
2026-05-06 15:21 31.74967 -85.16005 22097 ft 220 kts 316°
2026-05-06 15:21 31.76207 -85.17055 22101 ft 220 kts 316°
2026-05-06 15:21 31.77446 -85.18105 22100 ft 219 kts 316°
2026-05-06 15:21 31.78683 -85.19153 22102 ft 219 kts 315°
2026-05-06 15:22 31.79919 -85.20201 22107 ft 219 kts 316°
2026-05-06 15:22 31.81155 -85.21249 22108 ft 219 kts 316°
2026-05-06 15:22 31.82391 -85.22298 22111 ft 219 kts 316°
2026-05-06 15:22 31.83625 -85.23345 22109 ft 218 kts 316°
2026-05-06 15:23 31.84856 -85.24389 22112 ft 218 kts 316°
2026-05-06 15:23 31.86085 -85.25434 22112 ft 218 kts 316°
2026-05-06 15:23 31.87312 -85.26476 22113 ft 217 kts 316°
2026-05-06 15:23 31.88538 -85.27518 22110 ft 218 kts 315°
2026-05-06 15:24 31.89767 -85.28562 22107 ft 218 kts 315°
2026-05-06 15:24 31.90994 -85.29606 22106 ft 218 kts 315°
2026-05-06 15:24 31.92221 -85.30650 22104 ft 218 kts 315°
2026-05-06 15:24 31.93448 -85.31693 22046 ft 218 kts 315°
2026-05-06 15:25 31.94678 -85.32742 22048 ft 219 kts 315°
2026-05-06 15:25 31.95913 -85.33794 22047 ft 220 kts 316°
2026-05-06 15:25 31.97154 -85.34850 22048 ft 220 kts 316°
2026-05-06 15:25 31.98398 -85.35910 22047 ft 221 kts 316°
2026-05-06 15:26 31.99642 -85.36970 22048 ft 221 kts 315°
2026-05-06 15:26 32.00888 -85.38032 22052 ft 221 kts 315°
2026-05-06 15:26 32.02138 -85.39098 22049 ft 222 kts 315°
2026-05-06 15:26 32.03386 -85.40162 22050 ft 221 kts 315°
2026-05-06 15:27 32.04632 -85.41226 22052 ft 222 kts 315°
2026-05-06 15:27 32.05885 -85.42298 22049 ft 224 kts 315°
2026-05-06 15:27 32.07151 -85.43379 22050 ft 226 kts 315°
2026-05-06 15:27 32.08428 -85.44469 22051 ft 227 kts 315°
2026-05-06 15:28 32.09710 -85.45564 22051 ft 228 kts 315°
2026-05-06 15:28 32.10991 -85.46658 22053 ft 227 kts 315°
2026-05-06 15:28 32.12265 -85.47748 22050 ft 225 kts 315°
2026-05-06 15:28 32.13530 -85.48831 22050 ft 224 kts 315°
2026-05-06 15:29 32.14789 -85.49909 22050 ft 223 kts 315°
2026-05-06 15:29 32.16046 -85.50986 22051 ft 223 kts 315°
2026-05-06 15:29 32.17300 -85.52060 22050 ft 222 kts 315°
2026-05-06 15:29 32.18550 -85.53130 22050 ft 222 kts 315°
2026-05-06 15:30 32.19778 -85.54184 22049 ft 221 kts 315°
2026-05-06 15:30 32.21035 -85.55262 22050 ft 220 kts 315°
2026-05-06 15:30 32.22257 -85.56309 22050 ft 220 kts 315°
2026-05-06 15:30 32.23499 -85.57376 22050 ft 221 kts 315°
2026-05-06 15:31 32.24745 -85.58445 22048 ft 222 kts 315°
2026-05-06 15:31 32.25994 -85.59517 22048 ft 222 kts 315°
2026-05-06 15:31 32.27242 -85.60589 22073 ft 222 kts 314°
2026-05-06 15:32 32.29743 -85.62739 22059 ft 222 kts 314°
2026-05-06 15:32 32.30992 -85.63812 22058 ft 222 kts 315°
2026-05-06 15:32 32.32241 -85.64886 22057 ft 222 kts 314°
2026-05-06 15:32 32.33488 -85.65959 22056 ft 221 kts 314°
2026-05-06 15:33 32.34731 -85.67029 22061 ft 221 kts 314°
2026-05-06 15:33 32.35974 -85.68099 22062 ft 220 kts 314°
2026-05-06 15:33 32.37211 -85.69163 22063 ft 220 kts 314°
2026-05-06 15:33 32.38447 -85.70229 22064 ft 220 kts 314°
2026-05-06 15:34 32.39681 -85.71294 22065 ft 219 kts 314°
2026-05-06 15:34 32.40914 -85.72356 22065 ft 219 kts 314°
2026-05-06 15:34 32.41730 -85.73060 22063 ft 219 kts 314°
2026-05-06 15:34 32.42961 -85.74122 22064 ft 219 kts 314°
2026-05-06 15:35 32.44192 -85.75185 22065 ft 219 kts 314°
2026-05-06 15:35 32.45422 -85.76247 22065 ft 219 kts 314°
2026-05-06 15:35 32.46653 -85.77309 22065 ft 219 kts 314°
2026-05-06 15:35 32.47884 -85.78372 22063 ft 219 kts 314°
2026-05-06 15:36 32.49113 -85.79434 22061 ft 219 kts 314°
2026-05-06 15:36 32.50341 -85.80497 22061 ft 219 kts 314°
2026-05-06 15:36 32.51569 -85.81559 22060 ft 219 kts 314°
2026-05-06 15:36 32.52799 -85.82623 22058 ft 219 kts 314°
2026-05-06 15:37 32.54025 -85.83684 22055 ft 219 kts 314°
2026-05-06 15:37 32.55253 -85.84746 22075 ft 218 kts 314°
2026-05-06 15:37 32.56478 -85.85808 22057 ft 218 kts 314°
2026-05-06 15:37 32.57701 -85.86866 22058 ft 218 kts 314°
2026-05-06 15:38 32.58927 -85.87929 22056 ft 219 kts 314°
2026-05-06 15:38 32.60158 -85.88997 22050 ft 220 kts 314°
2026-05-06 15:38 32.61391 -85.90067 22050 ft 220 kts 314°
2026-05-06 15:38 32.62626 -85.91137 22049 ft 220 kts 314°
2026-05-06 15:39 32.63859 -85.92206 22051 ft 220 kts 314°
2026-05-06 15:39 32.65092 -85.93277 22052 ft 220 kts 314°
2026-05-06 15:39 32.66327 -85.94350 22052 ft 220 kts 314°
2026-05-06 15:39 32.67560 -85.95420 22052 ft 219 kts 314°
2026-05-06 15:40 32.68791 -85.96490 22056 ft 219 kts 314°
2026-05-06 15:40 32.70021 -85.97560 22055 ft 219 kts 314°
2026-05-06 15:40 32.71251 -85.98629 22055 ft 219 kts 314°
2026-05-06 15:40 32.72480 -85.99698 22054 ft 219 kts 314°
2026-05-06 15:41 32.73709 -86.00768 22054 ft 219 kts 314°
2026-05-06 15:41 32.74936 -86.01835 22053 ft 218 kts 314°
2026-05-06 15:41 32.76160 -86.02902 22057 ft 219 kts 314°
2026-05-06 15:41 32.77389 -86.03975 22052 ft 220 kts 314°
2026-05-06 15:42 32.78630 -86.05055 22051 ft 221 kts 314°
2026-05-06 15:42 32.79854 -86.06120 22048 ft 221 kts 314°
2026-05-06 15:42 32.81088 -86.07196 22047 ft 220 kts 314°
2026-05-06 15:42 32.82318 -86.08270 22048 ft 219 kts 314°
2026-05-06 15:43 32.83547 -86.09343 22048 ft 220 kts 314°
2026-05-06 15:43 32.84776 -86.10415 22048 ft 218 kts 314°
2026-05-06 15:43 32.86000 -86.11483 22048 ft 218 kts 314°
2026-05-06 15:43 32.87218 -86.12547 22048 ft 217 kts 314°
2026-05-06 15:44 32.88432 -86.13609 22051 ft 216 kts 314°
2026-05-06 15:44 32.89642 -86.14667 22049 ft 216 kts 314°
2026-05-06 15:44 32.90851 -86.15723 22050 ft 215 kts 314°
2026-05-06 15:44 32.92057 -86.16779 22048 ft 215 kts 314°
2026-05-06 15:45 32.93260 -86.17832 22054 ft 215 kts 314°
2026-05-06 15:45 32.94464 -86.18887 22041 ft 214 kts 313°
2026-05-06 15:45 32.95667 -86.19939 22042 ft 215 kts 313°
2026-05-06 15:45 32.96869 -86.20992 22043 ft 214 kts 313°
2026-05-06 15:46 32.98072 -86.22047 22043 ft 216 kts 313°
2026-05-06 15:46 32.99283 -86.23109 22043 ft 217 kts 313°
2026-05-06 15:46 33.00494 -86.24166 22041 ft 215 kts 313°
2026-05-06 15:46 33.01700 -86.25230 22047 ft 216 kts 313°
2026-05-06 15:47 33.02907 -86.26293 21859 ft 221 kts 313°
2026-05-06 15:47 33.04153 -86.27383 21358 ft 223 kts 314°
2026-05-06 15:47 33.05405 -86.28476 20892 ft 223 kts 314°
2026-05-06 15:47 33.06657 -86.29576 20410 ft 224 kts 314°
2026-05-06 15:48 33.07909 -86.30677 19940 ft 224 kts 313°
2026-05-06 15:48 33.09160 -86.31776 19473 ft 223 kts 313°
2026-05-06 15:48 33.10412 -86.32878 19026 ft 224 kts 314°
2026-05-06 15:48 33.11668 -86.33983 18577 ft 224 kts 314°
2026-05-06 15:49 33.12922 -86.35087 18093 ft 224 kts 314°
2026-05-06 15:49 33.14178 -86.36191 17573 ft 224 kts 314°
2026-05-06 15:49 33.15434 -86.37298 17066 ft 225 kts 314°
2026-05-06 15:49 33.16711 -86.38384 16569 ft 228 kts 318°
2026-05-06 15:50 33.18230 -86.39115 16073 ft 239 kts 330°
2026-05-06 15:50 33.19823 -86.39719 15596 ft 241 kts 331°
2026-05-06 15:50 33.21414 -86.40327 15234 ft 238 kts 331°
2026-05-06 15:50 33.22975 -86.40932 14969 ft 232 kts 330°
2026-05-06 15:51 33.24490 -86.41521 14784 ft 226 kts 330°
2026-05-06 15:51 33.25967 -86.42097 14618 ft 221 kts 330°
2026-05-06 15:51 33.27418 -86.42663 14452 ft 218 kts 329°
2026-05-06 15:51 33.28853 -86.43224 14284 ft 215 kts 329°
2026-05-06 15:52 33.30272 -86.43780 14070 ft 216 kts 329°
2026-05-06 15:52 33.31712 -86.44346 13812 ft 220 kts 329°
2026-05-06 15:52 33.33171 -86.44913 13528 ft 221 kts 330°
2026-05-06 15:52 33.34644 -86.45486 13244 ft 223 kts 330°
2026-05-06 15:53 33.36122 -86.46062 12963 ft 223 kts 330°
2026-05-06 15:53 33.37601 -86.46639 12689 ft 224 kts 330°
2026-05-06 15:53 33.39079 -86.47216 12413 ft 224 kts 330°
2026-05-06 15:53 33.40559 -86.47794 12139 ft 224 kts 330°
2026-05-06 15:54 33.42042 -86.48374 11866 ft 224 kts 330°
2026-05-06 15:54 33.43525 -86.48955 11603 ft 224 kts 330°
2026-05-06 15:54 33.45014 -86.49537 11338 ft 226 kts 330°
2026-05-06 15:54 33.46504 -86.50118 11068 ft 225 kts 331°
2026-05-06 15:55 33.47995 -86.50701 10818 ft 225 kts 331°
2026-05-06 15:55 33.49486 -86.51284 10563 ft 225 kts 331°
2026-05-06 15:55 33.50976 -86.51868 10309 ft 225 kts 331°
2026-05-06 15:55 33.52446 -86.52446 10051 ft 225 kts 331°
2026-05-06 15:56 33.53926 -86.53025 9796 ft 223 kts 331°
2026-05-06 15:56 33.55388 -86.53591 9567 ft 219 kts 331°
2026-05-06 15:56 33.56826 -86.54157 9340 ft 216 kts 331°
2026-05-06 15:56 33.58238 -86.54716 9114 ft 213 kts 331°
2026-05-06 15:57 33.59632 -86.55260 8887 ft 209 kts 332°
2026-05-06 15:57 33.61005 -86.55795 8665 ft 206 kts 331°
2026-05-06 15:57 33.62363 -86.56331 8444 ft 205 kts 331°
2026-05-06 15:57 33.63719 -86.56864 8238 ft 206 kts 331°
2026-05-06 15:58 33.65077 -86.57398 8019 ft 205 kts 331°
2026-05-06 15:58 33.66430 -86.57929 7805 ft 204 kts 331°
2026-05-06 15:58 33.67778 -86.58458 7578 ft 203 kts 331°
2026-05-06 15:58 33.69112 -86.58982 7361 ft 201 kts 330°
2026-05-06 15:59 33.70427 -86.59501 7151 ft 197 kts 331°
2026-05-06 15:59 33.71740 -86.60020 6902 ft 201 kts 331°
2026-05-06 15:59 33.73075 -86.60548 6650 ft 204 kts 332°
2026-05-06 15:59 33.74425 -86.61078 6378 ft 204 kts 333°
2026-05-06 16:00 33.75768 -86.61608 6092 ft 203 kts 331°
2026-05-06 16:00 33.76982 -86.62325 5844 ft 188 kts 316°
2026-05-06 16:00 33.77896 -86.63404 5555 ft 182 kts 297°
2026-05-06 16:00 33.78424 -86.64747 5290 ft 177 kts 280°
2026-05-06 16:01 33.78562 -86.66206 5031 ft 175 kts 267°
2026-05-06 16:01 33.78553 -86.67683 4761 ft 177 kts 267°
2026-05-06 16:01 33.78560 -86.69161 4491 ft 177 kts 268°
2026-05-06 16:01 33.78563 -86.70648 4214 ft 179 kts 267°
2026-05-06 16:02 33.78475 -86.72120 3938 ft 175 kts 254°
2026-05-06 16:02 33.77926 -86.73414 3688 ft 176 kts 232°
2026-05-06 16:02 33.76970 -86.74340 3425 ft 179 kts 210°
2026-05-06 16:02 33.75754 -86.74705 3168 ft 185 kts 188°
2026-05-06 16:03 33.74459 -86.74705 2918 ft 187 kts 185°
2026-05-06 16:03 33.73144 -86.74703 2653 ft 190 kts 186°
2026-05-06 16:03 33.71827 -86.74708 2371 ft 188 kts 185°
2026-05-06 16:03 33.70565 -86.74709 2293 ft 174 kts 186°
2026-05-06 16:04 33.69399 -86.74705 2302 ft 158 kts 186°
2026-05-06 16:04 33.68377 -86.74706 2281 ft 137 kts 186°
2026-05-06 16:04 33.67466 -86.74704 2283 ft 127 kts 188°
2026-05-06 16:04 33.66610 -86.74709 2290 ft 120 kts 189°
2026-05-06 16:05 33.65774 -86.74711 2283 ft 120 kts 187°
2026-05-06 16:05 33.64975 -86.74711 2233 ft 111 kts 188°
2026-05-06 16:05 33.64201 -86.74712 2101 ft 113 kts 186°
2026-05-06 16:05 33.63413 -86.74714 1942 ft 112 kts 186°
2026-05-06 16:06 33.62661 -86.74714 1779 ft 100 kts 187°
2026-05-06 16:06 33.62079 -86.74707 1654 ft 73 kts 186°
2026-05-06 16:06 33.61564 -86.74710 1548 ft 77 kts 186°
2026-05-06 16:06 33.61034 -86.74709 1463 ft 75 kts 192°
2026-05-06 16:07 33.60513 -86.74710 1323 ft 72 kts 192°
2026-05-06 16:07 33.60027 -86.74710 1245 ft 73 kts 185°
2026-05-06 16:07 33.59470 -86.74714 1123 ft 89 kts 185°
2026-05-06 16:07 33.58855 -86.74707 1017 ft 81 kts 187°
2026-05-06 16:08 33.58300 -86.74709 925 ft 81 kts 185°
2026-05-06 16:08 33.57728 -86.74711 811 ft 82 kts 186°
2026-05-06 16:08 33.57188 -86.74712 679 ft 72 kts 187°
2026-05-06 16:08 33.56747 -86.74716 630 ft 55 kts 188°
2026-05-06 16:09 33.56527 -86.74723 628 ft 4 kts 178°
2026-05-06 16:09 33.56433 -86.74710 618 ft 15 kts 138°
2026-05-06 16:09 33.56426 -86.74610 625 ft 0 kts 85°
2026-05-06 16:09 33.56426 -86.74606 630 ft 3 kts 85°
2026-05-06 16:10 33.56409 -86.74542 627 ft 12 kts 160°
2026-05-06 16:10 33.56370 -86.74537 621 ft 0 kts 179°